TimeEET,TemperatureF,Dew PointF,Humidity,Sea Level PressureIn,VisibilityMPH,Wind Direction,Wind SpeedMPH,Gust SpeedMPH,PrecipitationIn,Events,Conditions,WindDirDegrees,DateUTC
12:20 AM,55.4,51.8,88,30.04,6.2,ESE,6.9,-,N/A,,Mostly Cloudy,120,2013-02-23 22:20:00
12:50 AM,55.4,51.8,88,30.04,6.2,ESE,6.9,-,N/A,,Mostly Cloudy,120,2013-02-23 22:50:00
1:20 AM,55.4,51.8,88,30.04,6.2,ESE,5.8,-,N/A,,Mostly Cloudy,120,2013-02-23 23:20:00
1:50 AM,55.4,50.0,82,30.04,6.2,Calm,Calm,-,N/A,,Mostly Cloudy,0,2013-02-23 23:50:00
2:00 AM,55,50,77,30.06,6,Calm,Calm,,,,Scattered Clouds,,2013-02-24 00:00:00
2:20 AM,55.4,50.0,82,30.04,6.2,Calm,Calm,-,N/A,,Mostly Cloudy,0,2013-02-24 00:20:00
2:50 AM,55.4,50.0,82,30.04,6.2,SE,4.6,-,N/A,,Mostly Cloudy,140,2013-02-24 00:50:00
3:20 AM,55.4,50.0,82,30.04,6.2,Calm,Calm,-,N/A,,Mostly Cloudy,0,2013-02-24 01:20:00
3:50 AM,55.4,50.0,82,30.04,6.2,Calm,Calm,-,N/A,,Mostly Cloudy,0,2013-02-24 01:50:00
4:20 AM,55.4,50.0,82,30.04,6.2,ESE,4.6,-,N/A,,Mostly Cloudy,120,2013-02-24 02:20:00
4:50 AM,55.4,48.2,77,30.04,6.2,SSE,6.9,-,N/A,,Mostly Cloudy,150,2013-02-24 02:50:00
5:20 AM,55.4,48.2,77,30.04,6.2,SE,4.6,-,N/A,,Mostly Cloudy,130,2013-02-24 03:20:00
5:50 AM,55.4,48.2,77,30.04,6.2,SE,4.6,-,N/A,,Mostly Cloudy,140,2013-02-24 03:50:00
6:20 AM,55.4,48.2,77,30.04,6.2,SSE,5.8,-,N/A,,Mostly Cloudy,150,2013-02-24 04:20:00
6:50 AM,55.4,48.2,77,30.04,-9999.0,SE,5.8,-,N/A,,Clear,130,2013-02-24 04:50:00
7:20 AM,55.4,48.2,77,30.04,-9999.0,ESE,10.4,-,N/A,,Clear,110,2013-02-24 05:20:00
7:50 AM,55.4,50.0,82,30.04,6.2,ESE,9.2,-,N/A,,Mostly Cloudy,110,2013-02-24 05:50:00
8:00 AM,55,51,80,30.07,6,ESE,9.2,,,,Scattered Clouds,110,2013-02-24 06:00:00
8:20 AM,55.4,51.8,88,30.04,6.2,ESE,11.5,-,N/A,,Mostly Cloudy,120,2013-02-24 06:20:00
8:50 AM,60.8,42.8,52,30.04,6.2,ESE,11.5,-,N/A,,Mostly Cloudy,110,2013-02-24 06:50:00
9:20 AM,62.6,42.8,48,30.06,6.2,SE,16.1,-,N/A,,Mostly Cloudy,140,2013-02-24 07:20:00
9:50 AM,66.2,44.6,46,30.04,6.2,SSE,20.7,-,N/A,,Mostly Cloudy,150,2013-02-24 07:50:00
10:20 AM,66.2,44.6,46,30.04,6.2,SSE,16.1,-,N/A,,Mostly Cloudy,150,2013-02-24 08:20:00
10:50 AM,68.0,44.6,43,30.04,6.2,SSE,18.4,-,N/A,,Mostly Cloudy,150,2013-02-24 08:50:00
11:20 AM,68.0,44.6,43,30.04,6.2,SSE,16.1,-,N/A,,Mostly Cloudy,150,2013-02-24 09:20:00
11:50 AM,68.0,44.6,43,30.04,6.2,SSE,13.8,-,N/A,,Mostly Cloudy,150,2013-02-24 09:50:00
12:20 PM,68.0,44.6,43,30.04,6.2,SSE,11.5,-,N/A,,Mostly Cloudy,150,2013-02-24 10:20:00
12:50 PM,71.6,41.0,33,30.04,6.2,East,11.5,-,N/A,,Mostly Cloudy,80,2013-02-24 10:50:00
1:20 PM,71.6,41.0,33,30.04,6.2,WNW,9.2,-,N/A,,Mostly Cloudy,300,2013-02-24 11:20:00
1:50 PM,73.4,46.4,38,30.04,6.2,South,13.8,-,N/A,,Mostly Cloudy,170,2013-02-24 11:50:00
2:00 PM,73,47,29,30.03,6,South,13.8,,,,Scattered Clouds,170,2013-02-24 12:00:00
2:20 PM,73.4,46.4,38,30.04,6.2,SSE,11.5,-,N/A,,Mostly Cloudy,160,2013-02-24 12:20:00
2:50 PM,73.4,41.0,31,30.01,6.2,SE,10.4,-,N/A,,Mostly Cloudy,140,2013-02-24 12:50:00
3:20 PM,73.4,41.0,31,30.01,6.2,SSE,11.5,-,N/A,,Mostly Cloudy,150,2013-02-24 13:20:00
3:50 PM,71.6,41.0,33,30.01,6.2,SSE,9.2,-,N/A,,Mostly Cloudy,160,2013-02-24 13:50:00
4:20 PM,71.6,41.0,33,30.01,6.2,South,6.9,-,N/A,,Mostly Cloudy,180,2013-02-24 14:20:00
4:50 PM,69.8,46.4,43,30.01,6.2,WSW,6.9,-,N/A,,Mostly Cloudy,240,2013-02-24 14:50:00
5:20 PM,69.8,46.4,43,30.01,6.2,Calm,Calm,-,N/A,,Mostly Cloudy,0,2013-02-24 15:20:00
5:50 PM,66.2,48.2,52,30.01,6.2,Calm,Calm,-,N/A,,Mostly Cloudy,0,2013-02-24 15:50:00
6:20 PM,66.2,48.2,52,30.01,6.2,Calm,Calm,-,N/A,,Mostly Cloudy,0,2013-02-24 16:20:00
6:50 PM,64.4,42.8,45,30.04,6.2,SE,4.6,-,N/A,,Mostly Cloudy,140,2013-02-24 16:50:00
7:20 PM,64.4,42.8,45,30.04,6.2,SE,5.8,-,N/A,,Mostly Cloudy,140,2013-02-24 17:20:00
7:50 PM,62.6,37.4,39,30.04,6.2,SSE,8.1,-,N/A,,Mostly Cloudy,150,2013-02-24 17:50:00
8:00 PM,63,38,27,30.04,6,SSE,8.1,,,,Scattered Clouds,150,2013-02-24 18:00:00
8:20 PM,62.6,37.4,39,30.04,6.2,South,4.6,-,N/A,,Mostly Cloudy,180,2013-02-24 18:20:00
8:50 PM,59.0,41.0,51,30.04,6.2,Calm,Calm,-,N/A,,Mostly Cloudy,0,2013-02-24 18:50:00
9:20 PM,59.0,41.0,51,30.04,6.2,SSE,4.6,-,N/A,,Mostly Cloudy,160,2013-02-24 19:20:00
9:50 PM,57.2,42.8,59,30.04,6.2,East,6.9,-,N/A,,Mostly Cloudy,100,2013-02-24 19:50:00
10:20 PM,57.2,42.8,59,30.04,6.2,SE,4.6,-,N/A,,Mostly Cloudy,140,2013-02-24 20:20:00
10:50 PM,57.2,39.2,51,30.04,6.2,SE,4.6,-,N/A,,Mostly Cloudy,130,2013-02-24 20:50:00
11:20 PM,57.2,39.2,51,30.04,6.2,SE,6.9,-,N/A,,Mostly Cloudy,140,2013-02-24 21:20:00
11:50 PM,57.2,39.2,51,30.04,6.2,SE,6.9,-,N/A,,Scattered Clouds,130,2013-02-24 21:50:00